FW7359 Weather Reports


Display with metric or nautical units.
time (UTC)temp
F
wind
direction
speed
MPH
gust
MPH
rain 1hr
in
rain 24hr
in
rain mn
in
humidity
%
barometer
mb
20260504185543 56 46 4.0 6.0 0.00 0.00 0.00 49 1020.2
20260504184529 56 356 5.0 8.0 0.00 0.00 0.00 49 1020.2
20260504183517 56 17 5.0 8.0 0.00 0.00 0.00 49 1020.2
20260504182522 56 36 5.0 9.0 0.00 0.00 0.00 48 1020.2
20260504181528 57 4 5.0 8.0 0.00 0.00 0.00 48 1020.2
20260504180517 57 338 4.0 7.0 0.00 0.00 0.00 48 1020.2
20260504175523 56 28 4.0 5.0 0.00 0.00 0.00 50 1020.3
20260504174548 57 43 5.0 8.0 0.00 0.00 0.00 48 1020.5
20260504173536 57 112 4.0 9.0 0.00 0.00 0.00 48 1020.6
20260504172522 57 68 4.0 8.0 0.00 0.00 0.00 48 1020.8
20260504171528 56 125 6.0 9.0 0.00 0.00 0.00 49 1020.4
20260504170515 57 108 4.0 6.0 0.00 0.00 0.00 47 1020.8
20260504150533 52 323 3.0 6.0 0.00 0.00 0.00 55 1021.8
20260504140532 47 246 4.0 5.0 0.00 0.00 0.00 63 1022.5
20260504130531 44 249 5.0 7.0 0.00 0.00 0.00 64 1022.1
20260504110530 45 329 4.0 8.0 0.00 0.00 0.00 57 1022.0
20260504100611 47 277 4.0 7.0 0.00 0.00 0.00 54 1021.7
20260504081603 54 273 7.0 14.0 0.00 0.00 0.00 49 1020.0
20260504080530 54 268 7.0 16.0 0.00 0.00 0.00 48 1019.4
20260504050546 55 272 4.0 7.0 0.00 0.00 0.00 47 1015.6
20260504045532 56 254 6.0 10.0 0.00 0.00 0.00 46 1015.9
20260504044537 57 250 8.0 13.0 0.00 0.00 0.00 45 1015.5
20260504043525 56 271 7.0 9.0 0.00 0.00 0.00 46 1015.7
20260504042531 57 270 6.0 9.0 0.00 0.00 0.00 45 1015.3
20260504041537 58 270 7.0 9.0 0.00 0.00 0.00 43 1015.3
20260504040524 58 267 7.0 8.0 0.00 0.00 0.00 41 1015.3
20260504035530 59 258 3.0 4.0 0.00 0.00 0.00 37 1015.1
20260504034518 60 267 5.0 6.0 0.00 0.00 0.00 36 1015.2
20260504033544 61 261 4.0 6.0 0.00 0.00 0.00 37 1015.1
20260504032530 61 258 6.0 7.0 0.00 0.00 0.00 37 1015.1
20260504031538 61 236 6.0 8.0 0.00 0.00 0.00 38 1015.0
20260504030543 62 238 6.0 8.0 0.00 0.00 0.00 37 1015.0
20260504025530 63 246 6.0 8.0 0.00 0.00 0.00 36 1014.7
20260504024518 64 240 5.0 6.0 0.00 0.00 0.00 36 1014.7
20260504023543 65 254 4.0 6.0 0.00 0.00 0.00 35 1014.8
20260504022528 67 250 5.0 5.0 0.00 0.00 0.00 34 1014.6
20260504021517 69 265 4.0 6.0 0.00 0.00 0.00 33 1014.6
20260504020523 71 270 6.0 9.0 0.00 0.00 0.00 31 1014.7
20260504015528 72 267 5.0 9.0 0.00 0.00 0.00 29 1014.9
20260504014516 73 270 8.0 9.0 0.00 0.00 0.00 29 1014.7
20260504013522 73 265 7.0 14.0 0.00 0.00 0.00 28 1014.7
20260504012529 74 270 10.0 14.0 0.00 0.00 0.00 27 1014.9
20260504011517 74 268 11.0 14.0 0.00 0.00 0.00 27 1015.0
20260504010539 75 268 10.0 15.0 0.00 0.00 0.00 27 1015.0
20260504005527 75 267 10.0 15.0 0.00 0.00 0.00 27 1014.7
20260504004515 75 269 11.0 16.0 0.00 0.00 0.00 27 1014.7
20260504003602 75 270 12.0 15.0 0.00 0.00 0.00 26 1015.0
20260504002526 76 267 13.0 17.0 0.00 0.00 0.00 25 1015.0
20260504001532 77 261 8.0 14.0 0.00 0.00 0.00 26 1015.1
20260504000522 77 269 11.0 17.0 0.00 0.00 0.00 24 1015.3
20260503235526 77 267 7.0 12.0 0.00 0.00 0.00 25 1015.4
20260503234551 78 263 8.0 11.0 0.00 0.00 0.00 24 1015.6
20260503233537 78 267 8.0 11.0 0.00 0.00 0.00 24 1015.6
20260503232544 78 255 10.0 14.0 0.00 0.00 0.00 24 1015.6
20260503231530 78 267 5.0 10.0 0.00 0.00 0.00 26 1015.6
20260503230522 78 303 5.0 9.0 0.00 0.00 0.00 28 1016.0
20260503225524 78 275 7.0 12.0 0.00 0.00 0.00 25 1016.2
20260503224550 78 288 5.0 10.0 0.00 0.00 0.00 26 1016.5
20260503223518 78 284 7.0 12.0 0.00 0.00 0.00 26 1016.5
20260503222523 77 312 6.0 10.0 0.00 0.00 0.00 27 1016.5
20260503221530 75 270 7.0 11.0 0.00 0.00 0.00 27 1016.7
20260503220538 76 262 7.0 12.0 0.00 0.00 0.00 29 1016.9
20260503215524 77 233 8.0 12.0 0.00 0.00 0.00 30 1017.2
20260503214528 77 252 7.0 12.0 0.00 0.00 0.00 30 1017.4
20260503213516 78 266 12.0 17.0 0.00 0.00 0.00 30 1017.8
20260503212522 77 248 6.0 12.0 0.00 0.00 0.00 30 1017.8
20260503211528 77 254 9.0 15.0 0.00 0.00 0.00 29 1018.1
20260503210536 77 257 12.0 17.0 0.00 0.00 0.00 29 1018.2
20260503205522 76 248 4.0 10.0 0.00 0.00 0.00 29 1018.1
20260503204607 76 257 8.0 14.0 0.00 0.00 0.00 30 1018.4
20260503203515 77 248 7.0 12.0 0.00 0.00 0.00 29 1018.5
20260503202522 76 270 7.0 14.0 0.00 0.00 0.00 32 1018.8
20260503201527 75 254 10.0 15.0 0.00 0.00 0.00 31 1018.8
20260503200553 76 269 11.0 14.0 0.00 0.00 0.00 31 1018.8
20260503195649 76 264 9.0 14.0 0.00 0.00 0.00 31 1019.2
20260503194526 75 230 8.0 12.0 0.00 0.00 0.00 31 1019.1
20260503193552 74 225 8.0 12.0 0.00 0.00 0.00 32 1019.3
20260503192556 74 210 9.0 11.0 0.00 0.00 0.00 32 1019.3
20260503191526 74 265 3.0 17.0 0.00 0.00 0.00 34 1019.6
20260503190611 75 259 11.0 14.0 0.00 0.00 0.00 34 1019.8